This demonstration page uses our WeatherBlox Daily Observations layout. Learn more.

Left ArrowRight Arrow

Hourly Observations for February 16, 2019

Temp ( °F °C ) Dew Point ( °F °C ) Humidity (%) Winds ( mph kmh ) Pressure ( in mb ) Visibility ( mi km ) Precip ( " mm )
12:53 am 00:53 Clear 28 -2.2 19 -7.2 69 69 N 7 11 30.01 1016 10 16.0934 N/A
1:53 am 01:53 Clear 27 -2.8 20 -6.7 75 75 N 7 11 30.01 1016 10 16.0934 N/A
2:53 am 02:53 Clear 25 -3.9 19 -7.2 78 78 N 6 9 30.03 1017 10 16.0934 N/A
3:53 am 03:53 Mostly Cloudy 26 -3.3 20 -6.7 78 78 N 5 7 30.03 1017 10 16.0934 N/A
4:53 am 04:53 Cloudy 26 -3.3 20 -6.7 78 78 N 3 6 30.04 1017 10 16.0934 N/A
5:53 am 05:53 Mostly Cloudy 25 -3.9 19 -7.2 78 78 N 10 17 30.05 1018 10 16.0934 N/A
6:39 am 06:39 Partly Cloudy 24 -4.4 18 -7.8 77 77 N 8 13 30.09 1019 10 16.0934 N/A
6:53 am 06:53 Mostly Cloudy 24 -4.4 18 -7.8 77 77 NNE 9 15 30.06 1018 10 16.0934 N/A
7:39 am 07:39 Partly Cloudy 23 -5 17 -8.3 78 78 VRB 6 9 30.1 1019 10 16.0934 N/A
7:53 am 07:53 Partly Cloudy 23 -5 17 -8.3 78 78 NNE 8 13 30.08 1019 10 16.0934 N/A
8:53 am 08:53 Partly Cloudy 24 -4.4 18 -7.8 77 77 NE 10 17 30.09 1019 10 16.0934 N/A
9:04 am 09:04 Mostly Cloudy 24 -4.4 18 -7.8 77 77 NNE 10 17 30.12 1020 10 16.0934 N/A
9:53 am 09:53 Cloudy 25 -3.9 18 -7.8 75 75 NNE 8 13 30.1 1019 10 16.0934 N/A
10:53 am 10:53 Cloudy 28 -2.2 20 -6.7 72 72 E 13 20 30.1 1019 10 16.0934 N/A
11:53 am 11:53 Mostly Cloudy 29 -1.7 20 -6.7 69 69 ENE 9 15 30.1 1019 10 16.0934 N/A
12:08 pm 12:08 Mostly Sunny 30 -1.1 20 -6.7 66 66 E 9 15 30.12 1020 10 16.0934 N/A
12:53 pm 12:53 Mostly Sunny 31 -0.6 20 -6.7 64 64 N N/A 30.09 1019 10 16.0934 N/A
1:53 pm 13:53 Sunny 33 0.6 21 -6.1 61 61 VRB 3 6 30.06 1018 10 16.0934 N/A
2:53 pm 14:53 Sunny 34 1.1 22 -5.6 61 61 NNE 3 6 30.04 1017 10 16.0934 N/A
3:53 pm 15:53 Sunny 35 1.7 21 -6.1 57 57 VRB 5 7 30.04 1017 10 16.0934 N/A
4:53 pm 16:53 Sunny 34 1.1 22 -5.6 61 61 E 14 22 30.02 1017 10 16.0934 N/A
5:53 pm 17:53 Sunny 31 -0.6 22 -5.6 69 69 E 10 17 30.05 1018 10 16.0934 N/A
6:53 pm 18:53 Clear 29 -1.7 21 -6.1 72 72 E 10 17 30.06 1018 10 16.0934 N/A
7:53 pm 19:53 Clear 27 -2.8 20 -6.7 75 75 ENE 9 15 30.07 1018 10 16.0934 N/A
8:53 pm 20:53 Clear 27 -2.8 20 -6.7 75 75 NE 6 9 30.06 1018 10 16.0934 N/A
9:53 pm 21:53 Clear 27 -2.8 20 -6.7 75 75 ENE 8 13 30.06 1018 10 16.0934 N/A
10:53 pm 22:53 Clear 26 -3.3 20 -6.7 78 78 NE 8 13 30.04 1017 10 16.0934 N/A
11:53 pm 23:53 Clear 26 -3.3 20 -6.7 78 78 E 7 11 30.02 1017 10 16.0934 N/A

Powered by AerisWeather